Time,TemperatureF,DewpointF,PressureIn,WindDirection,WindDirectionDegrees,WindSpeedMPH,WindSpeedGustMPH,Humidity,HourlyPrecipIn,Conditions,Clouds,dailyrainin,SoftwareType,DateUTC
2013-04-08 00:02:00,30.0,26.0,-100.00,West,265,2.0,2.0,87,0.00,,,-99.99,,2013-04-08 05:02:00,
2013-04-08 00:12:00,30.0,26.0,-100.00,West,265,2.0,2.0,87,0.00,,,-99.99,,2013-04-08 05:12:00,
2013-04-08 00:22:00,30.0,26.0,-100.00,West,265,2.0,2.0,87,0.00,,,-99.99,,2013-04-08 05:22:00,
2013-04-08 00:52:00,31.0,27.0,-100.00,WNW,300,0.0,0.0,87,0.00,,,-99.99,,2013-04-08 05:52:00,
2013-04-08 01:02:00,31.0,27.0,-100.00,WNW,300,0.0,0.0,87,0.00,,,-99.99,,2013-04-08 06:02:00,
2013-04-08 01:12:00,31.0,27.0,-100.00,WNW,300,0.0,0.0,87,0.00,,,-99.99,,2013-04-08 06:12:00,
2013-04-08 01:22:00,31.0,27.0,-100.00,WNW,300,0.0,0.0,87,0.00,,,-99.99,,2013-04-08 06:22:00,
2013-04-08 01:52:00,31.0,27.0,-100.00,East,85,1.0,2.0,87,0.51,,,-99.99,,2013-04-08 06:52:00,
2013-04-08 02:02:00,31.0,27.0,-100.00,East,85,1.0,2.0,87,0.51,,,-99.99,,2013-04-08 07:02:00,
2013-04-08 02:12:00,31.0,27.0,-100.00,East,85,1.0,2.0,87,0.51,,,-99.99,,2013-04-08 07:12:00,
2013-04-08 02:22:00,31.0,27.0,-100.00,East,85,1.0,2.0,87,0.51,,,-99.99,,2013-04-08 07:22:00,
2013-04-08 03:02:00,32.0,28.0,-100.00,ESE,115,1.0,2.0,87,0.03,,,-99.99,,2013-04-08 08:02:00,
2013-04-08 03:12:00,32.0,28.0,-100.00,ESE,115,1.0,2.0,87,0.03,,,-99.99,,2013-04-08 08:12:00,
2013-04-08 03:22:00,32.0,28.0,-100.00,ESE,115,1.0,2.0,87,0.03,,,-99.99,,2013-04-08 08:22:00,
2013-04-08 03:52:00,32.0,29.0,-100.00,East,100,3.0,6.0,88,0.03,,,-99.99,,2013-04-08 08:52:00,
2013-04-08 04:02:00,32.0,29.0,-100.00,East,100,3.0,6.0,88,0.03,,,-99.99,,2013-04-08 09:02:00,
2013-04-08 04:12:00,32.0,29.0,-100.00,East,100,3.0,6.0,88,0.03,,,-99.99,,2013-04-08 09:12:00,
2013-04-08 04:22:00,32.0,29.0,-100.00,East,100,3.0,6.0,88,0.03,,,-99.99,,2013-04-08 09:22:00,
2013-04-08 04:53:00,32.0,29.0,-100.00,East,95,6.0,9.0,89,0.04,,,-99.99,,2013-04-08 09:53:00,
2013-04-08 05:03:00,32.0,29.0,-100.00,East,95,6.0,9.0,89,0.04,,,-99.99,,2013-04-08 10:03:00,
2013-04-08 05:13:00,32.0,29.0,-100.00,East,95,6.0,9.0,89,0.04,,,-99.99,,2013-04-08 10:13:00,
2013-04-08 05:23:00,32.0,29.0,-100.00,East,95,6.0,9.0,89,0.04,,,-99.99,,2013-04-08 10:23:00,
2013-04-08 05:53:00,32.0,29.0,-100.00,East,85,3.0,6.0,89,0.00,,,-99.99,,2013-04-08 10:53:00,
2013-04-08 06:02:00,32.0,29.0,-100.00,East,85,3.0,6.0,89,0.00,,,-99.99,,2013-04-08 11:02:00,
2013-04-08 06:12:00,32.0,29.0,-100.00,East,85,3.0,6.0,89,0.00,,,-99.99,,2013-04-08 11:12:00,
2013-04-08 06:22:00,32.0,29.0,-100.00,East,85,3.0,6.0,89,0.00,,,-99.99,,2013-04-08 11:22:00,
2013-04-08 06:53:00,32.0,29.0,-100.00,ENE,60,1.0,3.0,89,0.00,,,-99.99,,2013-04-08 11:53:00,
2013-04-08 07:03:00,32.0,29.0,-100.00,ENE,60,1.0,3.0,89,0.00,,,-99.99,,2013-04-08 12:03:00,
2013-04-08 07:12:00,32.0,29.0,-100.00,ENE,60,1.0,3.0,89,0.00,,,-99.99,,2013-04-08 12:12:00,
2013-04-08 07:23:00,32.0,29.0,-100.00,ENE,60,1.0,3.0,89,0.00,,,-99.99,,2013-04-08 12:23:00,
2013-04-08 07:53:00,33.0,30.0,-100.00,ENE,65,0.0,3.0,89,0.00,,,-99.99,,2013-04-08 12:53:00,
2013-04-08 08:03:00,33.0,30.0,-100.00,ENE,65,0.0,3.0,89,0.00,,,-99.99,,2013-04-08 13:03:00,
2013-04-08 08:12:00,33.0,30.0,-100.00,ENE,65,0.0,3.0,89,0.00,,,-99.99,,2013-04-08 13:12:00,
2013-04-08 08:22:00,33.0,30.0,-100.00,ENE,65,0.0,3.0,89,0.00,,,-99.99,,2013-04-08 13:22:00,
2013-04-08 08:52:00,33.0,31.0,-100.00,East,80,2.0,4.0,89,0.00,,,-99.99,,2013-04-08 13:52:00,
2013-04-08 09:03:00,33.0,31.0,-100.00,East,80,2.0,4.0,89,0.00,,,-99.99,,2013-04-08 14:03:00,
2013-04-08 09:12:00,33.0,31.0,-100.00,East,80,2.0,4.0,89,0.00,,,-99.99,,2013-04-08 14:12:00,
2013-04-08 09:22:00,33.0,31.0,-100.00,East,80,2.0,4.0,89,0.00,,,-99.99,,2013-04-08 14:22:00,
2013-04-08 09:52:00,34.0,31.0,-100.00,NE,55,1.0,6.0,89,0.00,,,-99.99,,2013-04-08 14:52:00,
2013-04-08 10:02:00,34.0,31.0,-100.00,NE,55,1.0,6.0,89,0.00,,,-99.99,,2013-04-08 15:02:00,
2013-04-08 10:12:00,34.0,31.0,-100.00,NE,55,1.0,6.0,89,0.00,,,-99.99,,2013-04-08 15:12:00,
2013-04-08 10:22:00,34.0,31.0,-100.00,NE,55,1.0,6.0,89,0.00,,,-99.99,,2013-04-08 15:22:00,
2013-04-08 10:53:00,34.0,31.0,-100.00,East,80,2.0,5.0,89,0.00,,,-99.99,,2013-04-08 15:53:00,
2013-04-08 11:03:00,34.0,31.0,-100.00,East,80,2.0,5.0,89,0.00,,,-99.99,,2013-04-08 16:03:00,
2013-04-08 11:13:00,34.0,31.0,-100.00,East,80,2.0,5.0,89,0.00,,,-99.99,,2013-04-08 16:13:00,
2013-04-08 11:23:00,34.0,31.0,-100.00,East,80,2.0,5.0,89,0.00,,,-99.99,,2013-04-08 16:23:00,
2013-04-08 11:53:00,34.0,31.0,-100.00,ESE,110,1.0,4.0,89,0.00,,,-99.99,,2013-04-08 16:53:00,
2013-04-08 12:03:00,34.0,31.0,-100.00,ESE,110,1.0,4.0,89,0.00,,,-99.99,,2013-04-08 17:03:00,
2013-04-08 12:12:00,34.0,31.0,-100.00,ESE,110,1.0,4.0,89,0.00,,,-99.99,,2013-04-08 17:12:00,
2013-04-08 12:22:00,34.0,31.0,-100.00,ESE,110,1.0,4.0,89,0.00,,,-99.99,,2013-04-08 17:22:00,
2013-04-08 12:52:00,35.0,32.0,-100.00,East,90,4.0,6.0,89,0.00,,,-99.99,,2013-04-08 17:52:00,
2013-04-08 13:02:00,35.0,32.0,-100.00,East,90,4.0,6.0,89,0.00,,,-99.99,,2013-04-08 18:02:00,
2013-04-08 13:12:00,35.0,32.0,-100.00,East,90,4.0,6.0,89,0.00,,,-99.99,,2013-04-08 18:12:00,
2013-04-08 13:23:00,35.0,32.0,-100.00,East,90,4.0,6.0,89,0.00,,,-99.99,,2013-04-08 18:23:00,
2013-04-08 13:42:00,36.0,34.0,-100.00,SE,145,1.0,5.0,89,0.00,,,-99.99,,2013-04-08 18:42:00,
2013-04-08 13:52:00,36.0,34.0,-100.00,SE,145,1.0,5.0,89,0.00,,,-99.99,,2013-04-08 18:52:00,
2013-04-08 14:02:00,36.0,34.0,-100.00,SE,145,1.0,5.0,89,0.00,,,-99.99,,2013-04-08 19:02:00,
2013-04-08 14:12:00,36.0,34.0,-100.00,SE,145,1.0,5.0,89,0.00,,,-99.99,,2013-04-08 19:12:00,
2013-04-08 14:22:00,36.0,34.0,-100.00,SE,145,1.0,5.0,89,0.00,,,-99.99,,2013-04-08 19:22:00,
2013-04-08 14:52:00,37.0,34.0,-100.00,East,95,1.0,2.0,89,0.00,,,-99.99,,2013-04-08 19:52:00,
2013-04-08 15:02:00,37.0,34.0,-100.00,East,95,1.0,2.0,89,0.00,,,-99.99,,2013-04-08 20:02:00,
2013-04-08 15:12:00,37.0,34.0,-100.00,East,95,1.0,2.0,89,0.00,,,-99.99,,2013-04-08 20:12:00,
2013-04-08 15:22:00,37.0,34.0,-100.00,East,95,1.0,2.0,89,0.00,,,-99.99,,2013-04-08 20:22:00,
2013-04-08 15:52:00,37.0,34.0,-100.00,NW,325,1.0,6.0,88,0.00,,,-99.99,,2013-04-08 20:52:00,
2013-04-08 16:02:00,37.0,34.0,-100.00,NW,325,1.0,6.0,88,0.00,,,-99.99,,2013-04-08 21:02:00,
2013-04-08 16:12:00,37.0,34.0,-100.00,NW,325,1.0,6.0,88,0.00,,,-99.99,,2013-04-08 21:12:00,
2013-04-08 16:22:00,37.0,34.0,-100.00,NW,325,1.0,6.0,88,0.00,,,-99.99,,2013-04-08 21:22:00,
2013-04-08 16:43:00,37.0,34.0,-100.00,NNW,340,2.0,5.0,88,0.00,,,-99.99,,2013-04-08 21:43:00,
2013-04-08 16:53:00,37.0,34.0,-100.00,NNW,340,2.0,5.0,88,0.00,,,-99.99,,2013-04-08 21:53:00,
2013-04-08 17:03:00,37.0,34.0,-100.00,NNW,340,2.0,5.0,88,0.00,,,-99.99,,2013-04-08 22:03:00,
2013-04-08 17:13:00,37.0,34.0,-100.00,NNW,340,2.0,5.0,88,0.00,,,-99.99,,2013-04-08 22:13:00,
2013-04-08 17:22:00,37.0,34.0,-100.00,NNW,340,2.0,5.0,88,0.00,,,-99.99,,2013-04-08 22:22:00,
2013-04-08 18:02:00,37.0,34.0,-100.00,NNE,25,2.0,6.0,88,0.00,,,-99.99,,2013-04-08 23:02:00,
2013-04-08 18:12:00,37.0,34.0,-100.00,NNE,25,2.0,6.0,88,0.00,,,-99.99,,2013-04-08 23:12:00,
2013-04-08 18:22:00,37.0,34.0,-100.00,NNE,25,2.0,6.0,88,0.00,,,-99.99,,2013-04-08 23:22:00,
2013-04-08 18:52:00,36.0,33.0,-100.00,NNE,20,1.0,4.0,87,0.00,,,-99.99,,2013-04-08 23:52:00,
2013-04-08 19:02:00,36.0,33.0,-100.00,NNE,20,1.0,4.0,87,0.00,,,-99.99,,2013-04-09 00:02:00,
2013-04-08 19:22:00,36.0,33.0,-100.00,NNE,20,1.0,4.0,87,0.00,,,-99.99,,2013-04-09 00:22:00,
2013-04-08 19:52:00,36.0,32.0,-100.00,WNW,300,1.0,3.0,87,0.00,,,-99.99,,2013-04-09 00:52:00,
2013-04-08 20:02:00,36.0,32.0,-100.00,WNW,300,1.0,3.0,87,0.00,,,-99.99,,2013-04-09 01:02:00,
2013-04-08 20:12:00,36.0,32.0,-100.00,WNW,300,1.0,3.0,87,0.00,,,-99.99,,2013-04-09 01:12:00,
2013-04-08 20:22:00,36.0,32.0,-100.00,WNW,300,1.0,3.0,87,0.00,,,-99.99,,2013-04-09 01:22:00,
2013-04-08 20:52:00,35.0,32.0,-100.00,WNW,295,2.0,3.0,87,0.00,,,-99.99,,2013-04-09 01:52:00,
2013-04-08 21:02:00,35.0,32.0,-100.00,WNW,295,2.0,3.0,87,0.00,,,-99.99,,2013-04-09 02:02:00,
2013-04-08 21:13:00,35.0,32.0,-100.00,WNW,295,2.0,3.0,87,0.00,,,-99.99,,2013-04-09 02:13:00,
2013-04-08 21:22:00,35.0,32.0,-100.00,WNW,295,2.0,3.0,87,0.00,,,-99.99,,2013-04-09 02:22:00,
2013-04-08 21:52:00,35.0,31.0,-100.00,West,260,0.0,1.0,87,0.00,,,-99.99,,2013-04-09 02:52:00,
2013-04-08 22:02:00,35.0,31.0,-100.00,West,260,0.0,1.0,87,0.00,,,-99.99,,2013-04-09 03:02:00,
2013-04-08 22:12:00,35.0,31.0,-100.00,West,260,0.0,1.0,87,0.00,,,-99.99,,2013-04-09 03:12:00,
2013-04-08 22:21:00,35.0,31.0,-100.00,West,260,0.0,1.0,87,0.00,,,-99.99,,2013-04-09 03:21:00,
2013-04-08 22:53:00,34.0,30.0,-100.00,NW,315,1.0,2.0,87,0.00,,,-99.99,,2013-04-09 03:53:00,
2013-04-08 23:03:00,34.0,30.0,-100.00,NW,315,1.0,2.0,87,0.00,,,-99.99,,2013-04-09 04:03:00,
2013-04-08 23:13:00,34.0,30.0,-100.00,NW,315,1.0,2.0,87,0.00,,,-99.99,,2013-04-09 04:13:00,
2013-04-08 23:23:00,34.0,30.0,-100.00,NW,315,1.0,2.0,87,0.00,,,-99.99,,2013-04-09 04:23:00,